Hourly Data Report for July 01, 2004

SHERBROOKE A
QUEBEC

45°26'00.000" N
71°41'00.000" W
241.40 m
7028124
71610
YSC

Download Data

Hourly Data (July 2004)
Hourly Data Report for July 1, 2004
TIME
LST
Temp Definition
°C
Dew Point Definition
°C
Rel Hum Definition
%
Precip. Amount Definition
mm

Wind Dir Definition
10's deg

Wind Spd Definition
km/h
Visibility Definition
km
Stn Press Definition
kPa
Hmdx Definition


Wind Chill Definition


Weather Definition


00:00 10.0 9.1 94     0 15.0 99.17      
01:00 9.5 8.4 93   9 4 15.0 99.16      
02:00 9.6 8.5 93   9 7 15.0 99.12      
03:00 9.3 8.0 92   10 6 15.0 99.13      
04:00 9.5 8.1 91   9 7 15.0 99.11      
05:00 9.9 8.5 91   9 6 15.0 99.11      
06:00 12.5 10.5 88   7 6 15.0 99.10      
07:00 15.2 9.4 68   31 11 24.1 99.14     Mainly Clear
08:00 18.6 13.0 70   15 9 24.1 99.11     Mainly Clear
09:00 22.2 11.9 52   23 13 24.1 99.07     Mainly Clear
10:00 23.1 10.4 45   22 11 24.1 99.07 25   Mainly Clear
11:00 24.3 10.0 40   18 7 24.1 98.96 26   Mainly Clear
12:00 25.6 11.5 41   14 17 24.1 98.88 28   Mainly Clear
13:00 26.9 11.5 38   18 15 24.1 98.80 29   Mainly Clear
14:00 26.6 12.2 41   21 9 24.1 98.75 29   Mostly Cloudy
15:00 25.7 11.7 42   20 11 24.1 98.70 28   Mostly Cloudy
16:00 21.3 12.5 57   33 20 19.3 98.67     Rain Showers
17:00 17.7 13.7 77   33 9 15.0 98.79     Moderate Rain
18:00 15.7 13.8 88   2 9 15.0 98.81     Rain
19:00 15.3 14.0 92   8 11 4.8 98.85     Moderate Rain
20:00 15.6 14.1 91   12 9 11.3 98.67     Rain
21:00 14.3 13.3 94     0 4.8 98.63      
22:00 14.6 13.4 93   8 4 12.9 98.64      
23:00 14.4 13.5 94   34 4 5.6 98.60      

Notes on Data Quality.

Legend

  • E = Estimated
  • M = Missing
  • NA = Not Available*
  • [empty] = Indicates an unobserved value
Date modified: